Vorticity
2 3 3 4 1 5 14 -8 -2 1 5 -1 1 -18 -2 -11 -1 -4 -3 1 1 1 2 3 -1 -1 4 4 8 9 12 6 7 8 5 6 6 5 4 5 6 8 6 7 7 6 6 7 10
3 2 2 2 4 0 11 -4 0 4 5 2 -13 24 12 5 0 -0 1 -1 2 1 2 2 -1 -4 7 3 9 10 12 7 7 8 5 6 6 4 5 5 6 6 4 7 6 7 7 6 7
4 2 2 3 3 3 -12 19 14 1 -10 1 10 10 11 11 5 2 3 5 4 2 2 1 1 -3 1 9 10 10 11 8 8 6 6 6 6 5 4 4 6 5 6 6 6 7 7 7 6
6 4 4 3 2 10 1 -17 4 12 16 13 16 14 5 8 -0 2 4 4 6 3 2 3 3 1 -4 6 12 12 11 8 8 6 6 6 6 6 5 4 5 5 6 6 7 7 8 11 7
8 4 6 3 4 8 4 -5 4 13 -12 -13 -13 4 4 6 6 3 4 6 5 2 3 3 2 3 -1 3 10 14 10 10 8 6 5 5 5 6 5 4 4 4 6 5 7 9 10 5 5
6 9 6 4 4 -1 -4 -7 2 5 2 11 9 1 4 2 2 0 2 5 4 2 2 3 3 2 0 -1 7 15 10 12 9 7 5 6 5 5 5 5 4 4 6 4 8 9 8 5 2
7 9 11 6 4 2 -7 -2 6 5 3 15 1 0 5 2 13 -0 0 4 4 4 4 2 2 0 1 2 6 15 12 12 9 7 5 6 6 5 5 5 5 5 5 3 6 6 5 2 4
6 5 12 11 5 7 3 -1 10 5 -1 17 11 5 2 2 4 11 2 3 5 4 4 3 3 3 -2 3 4 16 14 12 10 8 6 6 7 6 6 4 5 5 5 4 4 0 4 3 1
4 4 6 14 10 15 -8 -12 24 8 9 11 10 4 3 3 3 5 0 3 4 5 5 4 3 4 4 3 1 12 17 12 12 9 6 6 7 6 7 6 4 5 6 5 4 3 0 2 1
3 3 3 8 16 9 -6 -14 15 -2 1 -2 0 6 5 5 4 3 5 5 4 4 7 4 3 3 2 3 1 -1 20 14 12 10 7 6 7 8 7 6 6 4 5 4 1 1 3 2 1
7 3 0 4 9 11 9 -8 -7 -2 3 3 4 3 3 3 3 4 4 4 3 4 6 7 4 3 4 3 4 5 7 18 13 12 7 5 6 9 9 7 7 6 5 5 4 3 2 3 -0
4 4 5 1 5 8 11 7 -8 -0 2 5 15 2 3 3 4 4 6 3 3 5 6 7 5 3 2 6 6 -0 7 15 14 14 10 6 6 8 9 8 7 4 4 5 5 4 4 4 5
4 2 4 2 3 5 4 8 8 3 10 6 1 4 6 6 7 7 4 3 4 4 5 5 6 5 3 3 6 0 4 7 17 13 12 8 7 9 9 8 7 4 2 2 4 4 2 3 2
5 4 2 3 1 4 4 3 3 6 4 7 8 6 5 3 5 8 6 4 4 4 5 4 6 6 3 4 3 2 4 3 5 17 15 10 9 10 8 7 8 7 6 5 3 2 4 4 3
4 5 5 4 4 2 3 -1 3 10 3 3 4 4 7 6 6 5 6 5 4 4 4 4 5 5 5 3 3 3 1 5 4 4 15 18 10 10 6 4 5 6 7 6 5 3 3 2 3
10 10 5 4 5 5 4 3 4 4 5 8 5 4 5 5 4 6 6 5 7 4 4 4 4 5 5 4 3 5 5 2 4 3 10 12 14 10 7 4 4 5 5 6 7 7 4 4 2
11 7 8 8 4 7 10 8 4 5 7 4 6 7 6 6 4 4 4 5 6 4 4 4 4 4 5 4 2 4 6 3 5 3 8 13 15 11 7 5 4 4 5 6 6 5 5 4 3
27 -5 0 9 2 11 8 10 3 8 4 8 6 5 6 5 5 5 5 6 7 4 3 4 5 6 7 4 4 3 4 6 6 3 7 10 12 16 12 7 6 5 6 7 6 5 3 4 4
14 11 8 10 4 4 3 16 4 9 14 8 5 5 4 8 7 5 4 4 9 7 4 5 5 3 3 5 4 2 3 6 7 4 4 4 4 12 18 17 10 6 5 6 5 5 5 6 7
9 4 6 3 4 4 2 1 -10 4 8 7 7 5 8 6 4 4 5 4 5 8 6 6 5 6 6 4 4 3 2 5 6 5 7 0 1 -2 15 17 15 10 7 6 6 6 6 6 6
9 10 10 8 5 6 7 19 7 17 -9 -7 0 14 8 7 13 15 16 11 10 7 10 9 7 6 6 5 4 4 4 5 6 5 4 4 6 3 5 11 17 21 14 9 7 6 7 7 7
5 8 10 9 9 10 7 10 10 5 10 10 20 9 -4 2 10 10 7 4 7 7 2 9 6 6 7 7 5 5 4 5 5 4 5 8 4 2 0 8 8 8 14 18 9 6 6 7 5
9 9 11 13 5 12 0 12 4 5 5 1 4 7 -3 26 -5 8 3 6 6 6 5 7 9 11 9 7 5 4 5 5 3 3 4 8 5 2 2 6 9 11 10 9 9 10 8 6 5
9 4 4 8 7 12 9 2 17 13 7 7 7 4 5 5 20 9 12 16 10 10 13 17 23 13 3 5 6 5 1 5 5 3 5 4 5 5 2 4 4 7 9 13 10 10 10 6 6
7 11 8 11 4 -12 6 12 9 11 12 14 12 14 17 8 7 12 10 9 -13 -2 8 10 9 7 6 6 5 4 4 6 5 3 3 10 7 5 2 2 8 9 9 10 11 10 12 12 11
21 15 11 1 -1 2 10 -5 -7 9 9 11 15 13 14 17 9 3 15 8 10 16 11 16 17 21 11 4 4 3 6 0 1 8 8 4 5 6 3 5 4 11 12 12 11 10 10 9 9
12 4 5 28 14 19 13 3 12 4 3 1 2 6 8 9 14 13 19 6 5 14 12 5 19 25 21 15 9 9 7 20 9 5 4 7 4 6 2 5 10 4 0 -1 5 12 10 9 10
5 9 27 -3 14 4 18 13 9 4 8 11 9 6 12 22 11 15 16 12 12 10 9 21 -3 -12 -4 -3 -3 -2 -0 5 10 6 6 5 6 4 5 10 3 2 -1 2 10 10 9 10 7
5 -4 3 16 -3 0 4 6 9 11 8 -0 8 9 0 13 4 6 9 11 9 13 11 8 9 3 22 14 16 12 10 7 6 7 4 8 3 3 2 4 5 3 1 5 18 16 10 7 6
27 10 19 18 -6 1 -5 -5 16 17 9 12 11 -0 -3 3 -1 6 1 -2 0 12 13 7 14 19 19 3 6 -4 15 19 11 12 9 2 6 1 6 3 2 3 3 18 17 5 3 6 4
Height
5884 5885 5888 5890 5897 5897 5899 5902 5900 5898 5904 5903 5901 5903 5906 5903 5898 5903 5901 5899 5899 5899 5899 5897 5896 5894 5891 5888 5885 5882 5880 5878 5877 5876 5875 5874 5873 5872 5872 5871 5870 5870 5870 5870 5869 5869 5869 5869 5868
5880 5882 5885 5888 5893 5896 5898 5896 5896 5895 5899 5901 5899 5899 5903 5901 5900 5900 5900 5899 5899 5898 5898 5898 5896 5893 5890 5887 5883 5881 5879 5878 5877 5876 5874 5873 5872 5871 5872 5871 5871 5870 5870 5870 5870 5870 5869 5870 5869
5876 5879 5882 5884 5888 5893 5894 5890 5890 5893 5896 5898 5896 5895 5901 5903 5898 5898 5900 5898 5898 5897 5897 5896 5894 5892 5889 5886 5882 5880 5878 5877 5877 5876 5874 5872 5872 5872 5872 5871 5871 5871 5870 5870 5870 5870 5870 5870 5870
5872 5875 5877 5881 5885 5889 5887 5884 5890 5890 5892 5893 5891 5889 5893 5902 5896 5894 5897 5897 5896 5895 5895 5894 5892 5891 5888 5885 5882 5879 5877 5876 5876 5875 5873 5872 5872 5872 5872 5871 5871 5871 5871 5870 5870 5870 5870 5870 5870
5866 5869 5872 5877 5882 5884 5883 5881 5888 5888 5888 5889 5886 5885 5888 5894 5894 5892 5893 5895 5895 5892 5893 5892 5891 5890 5887 5884 5880 5878 5875 5874 5874 5873 5872 5871 5870 5871 5871 5870 5870 5870 5871 5871 5870 5870 5870 5870 5870
5860 5863 5867 5872 5877 5879 5877 5877 5882 5885 5884 5885 5884 5881 5883 5890 5891 5889 5890 5892 5894 5891 5891 5891 5890 5888 5886 5883 5879 5876 5874 5872 5872 5872 5871 5870 5870 5869 5869 5869 5869 5870 5871 5871 5870 5870 5870 5870 5870
5854 5855 5861 5865 5871 5873 5871 5872 5877 5883 5881 5879 5879 5875 5877 5885 5889 5885 5885 5888 5889 5889 5889 5889 5888 5886 5884 5881 5877 5873 5871 5871 5870 5870 5870 5868 5868 5868 5868 5868 5869 5870 5870 5870 5869 5869 5869 5869 5869
5847 5848 5853 5858 5864 5869 5865 5870 5873 5876 5875 5873 5874 5869 5874 5879 5886 5884 5882 5885 5885 5885 5884 5885 5884 5883 5881 5878 5875 5871 5869 5868 5867 5867 5867 5867 5866 5866 5866 5867 5867 5868 5869 5869 5869 5869 5868 5868 5868
5839 5842 5847 5853 5858 5862 5860 5860 5863 5867 5869 5869 5868 5869 5868 5872 5881 5882 5879 5880 5881 5882 5881 5881 5881 5880 5879 5876 5873 5870 5867 5866 5864 5864 5864 5865 5864 5863 5863 5864 5865 5866 5867 5867 5867 5867 5866 5866 5866
5832 5836 5843 5847 5851 5854 5852 5853 5858 5859 5861 5866 5864 5865 5865 5866 5871 5876 5877 5876 5876 5879 5879 5878 5877 5877 5876 5873 5871 5868 5865 5863 5862 5861 5861 5861 5861 5861 5860 5860 5862 5863 5863 5864 5864 5864 5864 5864 5863
5826 5830 5835 5841 5843 5845 5845 5846 5848 5850 5853 5857 5860 5860 5861 5860 5863 5867 5870 5872 5872 5873 5875 5874 5872 5873 5873 5870 5868 5865 5863 5860 5860 5859 5858 5858 5858 5859 5858 5857 5858 5860 5860 5860 5860 5860 5861 5861 5862
5816 5822 5826 5832 5835 5836 5838 5839 5839 5844 5848 5851 5854 5852 5854 5856 5856 5861 5862 5863 5866 5871 5874 5872 5870 5868 5869 5867 5864 5861 5860 5858 5856 5855 5854 5855 5855 5854 5855 5854 5854 5855 5855 5855 5855 5856 5856 5856 5856
5807 5814 5817 5823 5826 5827 5829 5832 5833 5839 5840 5843 5845 5847 5847 5850 5854 5857 5856 5853 5852 5863 5867 5867 5865 5864 5864 5863 5862 5858 5857 5855 5853 5851 5850 5850 5850 5849 5850 5850 5850 5850 5851 5851 5850 5852 5852 5851 5852
5800 5802 5807 5812 5818 5820 5820 5824 5826 5832 5832 5835 5836 5840 5841 5843 5845 5850 5850 5850 5846 5848 5858 5861 5859 5858 5859 5858 5857 5856 5853 5851 5848 5847 5846 5845 5846 5845 5846 5846 5846 5846 5846 5845 5846 5845 5845 5845 5844
5788 5792 5798 5805 5809 5812 5810 5813 5820 5825 5825 5827 5830 5830 5835 5837 5840 5841 5844 5844 5842 5840 5849 5853 5854 5852 5851 5853 5851 5851 5849 5848 5846 5843 5841 5841 5841 5840 5840 5840 5840 5840 5841 5840 5840 5839 5838 5838 5837
5778 5783 5789 5801 5800 5804 5803 5806 5813 5816 5819 5823 5824 5825 5827 5831 5832 5835 5836 5837 5839 5834 5838 5844 5848 5847 5845 5848 5845 5845 5843 5841 5841 5840 5838 5836 5835 5835 5834 5833 5833 5833 5833 5833 5833 5832 5832 5832 5831
5767 5772 5778 5787 5788 5789 5790 5798 5807 5807 5807 5813 5817 5817 5819 5821 5823 5825 5827 5829 5832 5830 5829 5835 5840 5841 5838 5841 5840 5839 5837 5836 5834 5832 5831 5830 5829 5828 5827 5827 5826 5825 5825 5824 5825 5825 5824 5823 5822
5763 5765 5767 5771 5781 5778 5781 5787 5793 5794 5797 5802 5806 5808 5810 5813 5814 5816 5817 5820 5824 5824 5821 5826 5832 5834 5832 5833 5834 5833 5832 5832 5831 5828 5825 5823 5821 5821 5820 5819 5819 5820 5818 5817 5816 5815 5814 5814 5812
5748 5749 5754 5764 5766 5764 5769 5775 5778 5782 5785 5790 5796 5801 5802 5805 5807 5808 5807 5811 5816 5817 5814 5817 5821 5825 5826 5824 5826 5827 5826 5824 5825 5824 5821 5819 5816 5815 5814 5812 5812 5810 5808 5807 5806 5805 5805 5803 5802
5730 5733 5741 5750 5755 5752 5758 5759 5765 5767 5773 5779 5784 5791 5794 5794 5795 5796 5797 5800 5807 5809 5808 5810 5813 5817 5819 5815 5817 5818 5818 5817 5817 5816 5815 5813 5810 5807 5805 5804 5803 5801 5799 5797 5796 5796 5795 5795 5792
5717 5722 5734 5738 5742 5739 5741 5743 5754 5763 5767 5771 5776 5781 5785 5789 5789 5789 5791 5791 5797 5800 5801 5801 5803 5808 5811 5809 5808 5809 5808 5809 5809 5808 5806 5805 5803 5801 5798 5796 5794 5792 5790 5788 5787 5786 5785 5784 5782
5703 5717 5719 5724 5721 5722 5732 5727 5739 5753 5758 5761 5765 5770 5774 5779 5778 5780 5780 5781 5782 5789 5790 5793 5795 5799 5802 5802 5799 5799 5799 5799 5799 5798 5797 5795 5794 5792 5790 5788 5785 5783 5781 5779 5777 5775 5773 5771 5769
5696 5701 5705 5707 5705 5711 5712 5715 5732 5742 5743 5751 5756 5759 5762 5765 5769 5769 5768 5772 5774 5777 5784 5786 5788 5789 5792 5793 5791 5789 5789 5789 5788 5787 5787 5786 5784 5782 5781 5778 5776 5773 5770 5767 5765 5763 5761 5758 5756
5686 5685 5689 5692 5693 5688 5701 5704 5717 5727 5734 5738 5744 5749 5750 5754 5758 5761 5761 5763 5764 5766 5773 5778 5779 5780 5781 5781 5780 5778 5777 5778 5778 5777 5776 5775 5775 5773 5770 5769 5765 5762 5759 5756 5753 5751 5748 5746 5744
5667 5671 5669 5670 5669 5669 5694 5686 5699 5719 5721 5726 5732 5737 5741 5743 5745 5747 5748 5752 5753 5755 5763 5768 5768 5769 5770 5770 5769 5768 5767 5767 5767 5766 5765 5764 5763 5761 5759 5757 5755 5751 5749 5746 5742 5740 5737 5734 5731
5651 5656 5656 5654 5659 5667 5679 5670 5689 5712 5711 5716 5721 5725 5728 5731 5733 5736 5735 5738 5741 5745 5750 5753 5757 5757 5758 5758 5757 5757 5757 5756 5756 5754 5753 5752 5751 5749 5748 5746 5744 5741 5737 5734 5730 5727 5723 5720 5717
5639 5634 5650 5647 5649 5649 5657 5664 5675 5697 5702 5709 5712 5712 5715 5717 5718 5720 5724 5728 5732 5736 5739 5742 5744 5745 5746 5747 5747 5747 5747 5745 5744 5743 5742 5741 5740 5739 5737 5735 5732 5729 5725 5722 5718 5714 5710 5707 5704
5616 5632 5633 5636 5632 5631 5641 5648 5660 5685 5695 5699 5700 5701 5703 5705 5707 5710 5712 5716 5721 5724 5726 5730 5732 5733 5734 5735 5736 5736 5737 5735 5733 5732 5730 5730 5728 5726 5724 5722 5720 5718 5714 5709 5705 5702 5697 5693 5690
5607 5609 5614 5620 5620 5620 5624 5629 5656 5672 5684 5688 5691 5692 5691 5692 5694 5698 5700 5705 5710 5715 5717 5718 5721 5721 5722 5723 5723 5723 5724 5723 5722 5720 5719 5718 5716 5715 5713 5711 5709 5706 5701 5697 5693 5689 5684 5680 5676
5587 5591 5599 5601 5606 5606 5609 5614 5648 5656 5673 5678 5679 5679 5680 5681 5682 5684 5684 5687 5697 5704 5706 5708 5709 5710 5711 5711 5711 5711 5712 5711 5710 5708 5707 5706 5704 5702 5700 5699 5696 5692 5688 5684 5679 5675 5671 5668 5664